TimeCST,TemperatureF,Dew PointF,Humidity,Sea Level PressureIn,VisibilityMPH,Wind Direction,Wind SpeedMPH,Gust SpeedMPH,PrecipitationIn,Events,Conditions,WindDirDegrees,DateUTC
12:15 AM,42.8,21.2,42,30.16,10.0,Calm,Calm,-,N/A,,Overcast,0,2014-02-25 06:15:00
12:35 AM,42.8,21.2,42,30.16,10.0,Calm,Calm,-,N/A,,Overcast,0,2014-02-25 06:35:00
12:55 AM,42.8,23.0,46,30.17,10.0,WNW,3.5,-,N/A,,Overcast,290,2014-02-25 06:55:00
1:15 AM,42.8,23.0,46,30.17,10.0,NW,4.6,-,N/A,,Overcast,310,2014-02-25 07:15:00
1:35 AM,42.8,23.0,46,30.17,10.0,NW,4.6,-,N/A,,Overcast,310,2014-02-25 07:35:00
1:55 AM,42.8,21.2,42,30.17,10.0,West,3.5,-,N/A,,Overcast,280,2014-02-25 07:55:00
2:15 AM,42.8,23.0,46,30.17,10.0,WSW,3.5,-,N/A,,Overcast,250,2014-02-25 08:15:00
2:35 AM,42.8,21.2,42,30.17,10.0,West,3.5,-,N/A,,Overcast,260,2014-02-25 08:35:00
2:55 AM,42.8,21.2,42,30.16,10.0,West,3.5,-,N/A,,Overcast,280,2014-02-25 08:55:00
3:15 AM,42.8,23.0,46,30.16,10.0,NW,4.6,-,N/A,,Overcast,320,2014-02-25 09:15:00
3:35 AM,42.8,23.0,46,30.16,10.0,NW,5.8,-,N/A,,Overcast,320,2014-02-25 09:35:00
3:55 AM,42.8,23.0,46,30.16,10.0,NNW,8.1,-,N/A,,Overcast,330,2014-02-25 09:55:00
4:15 AM,42.8,24.8,49,30.16,10.0,NNW,8.1,-,N/A,,Overcast,340,2014-02-25 10:15:00
4:35 AM,42.8,24.8,49,30.16,10.0,North,8.1,-,N/A,,Overcast,350,2014-02-25 10:35:00
4:55 AM,41.0,23.0,49,30.16,10.0,North,6.9,-,N/A,,Mostly Cloudy,10,2014-02-25 10:55:00
5:15 AM,37.4,19.4,48,30.16,10.0,North,6.9,-,N/A,,Partly Cloudy,10,2014-02-25 11:15:00
5:35 AM,35.6,19.4,52,30.16,10.0,NNE,6.9,-,N/A,,Clear,20,2014-02-25 11:35:00
5:55 AM,35.6,19.4,52,30.17,10.0,North,4.6,-,N/A,,Clear,10,2014-02-25 11:55:00
6:15 AM,35.6,19.4,52,30.17,-9999.0,North,3.5,-,N/A,,Clear,350,2014-02-25 12:15:00
6:35 AM,33.8,17.6,52,30.17,-9999.0,NNE,4.6,-,N/A,,Clear,20,2014-02-25 12:35:00
6:55 AM,33.8,17.6,52,30.16,10.0,NNE,4.6,-,N/A,,Clear,20,2014-02-25 12:55:00
7:15 AM,33.8,17.6,52,30.17,10.0,North,8.1,-,N/A,,Clear,10,2014-02-25 13:15:00
7:35 AM,33.8,19.4,56,30.17,10.0,NNE,6.9,-,N/A,,Clear,20,2014-02-25 13:35:00
7:55 AM,35.6,19.4,52,30.18,10.0,NNE,11.5,-,N/A,,Clear,20,2014-02-25 13:55:00
8:15 AM,35.6,17.6,48,30.20,10.0,NNE,8.1,-,N/A,,Clear,20,2014-02-25 14:15:00
8:35 AM,35.6,15.8,44,30.20,10.0,NE,15.0,19.6,N/A,,Clear,40,2014-02-25 14:35:00
8:55 AM,37.4,15.8,41,30.22,10.0,NNE,13.8,-,N/A,,Clear,30,2014-02-25 14:55:00
9:15 AM,37.4,14.0,38,30.22,10.0,NNE,13.8,-,N/A,,Clear,30,2014-02-25 15:15:00
9:35 AM,37.4,15.8,41,30.22,10.0,NE,11.5,-,N/A,,Clear,40,2014-02-25 15:35:00
9:55 AM,39.2,15.8,39,30.21,10.0,NE,15.0,20.7,N/A,,Clear,50,2014-02-25 15:55:00
10:15 AM,39.2,15.8,39,30.21,10.0,NE,16.1,19.6,N/A,,Clear,40,2014-02-25 16:15:00
10:35 AM,41.0,15.8,36,30.21,10.0,ENE,8.1,19.6,N/A,,Clear,60,2014-02-25 16:35:00
10:55 AM,41.0,15.8,36,30.20,10.0,NE,11.5,19.6,N/A,,Clear,50,2014-02-25 16:55:00
11:15 AM,42.8,15.8,34,30.20,10.0,NE,11.5,17.3,N/A,,Clear,40,2014-02-25 17:15:00
11:35 AM,42.8,17.6,36,30.20,10.0,NNE,16.1,20.7,N/A,,Clear,30,2014-02-25 17:35:00
11:55 AM,42.8,17.6,36,30.21,10.0,ENE,10.4,17.3,N/A,,Clear,70,2014-02-25 17:55:00
12:15 PM,44.6,17.6,34,30.20,10.0,NE,10.4,19.6,N/A,,Clear,50,2014-02-25 18:15:00
12:35 PM,44.6,17.6,34,30.19,10.0,NE,10.4,16.1,N/A,,Partly Cloudy,40,2014-02-25 18:35:00
12:55 PM,44.6,19.4,37,30.19,10.0,NE,8.1,-,N/A,,Mostly Cloudy,50,2014-02-25 18:55:00
1:15 PM,44.6,19.4,37,30.18,10.0,NNE,5.8,-,N/A,,Overcast,30,2014-02-25 19:15:00
1:35 PM,44.6,19.4,37,30.17,10.0,NNE,10.4,-,N/A,,Overcast,20,2014-02-25 19:35:00
1:55 PM,44.6,19.4,37,30.16,10.0,North,11.5,-,N/A,,Overcast,10,2014-02-25 19:55:00
2:15 PM,44.6,19.4,37,30.16,10.0,North,16.1,-,N/A,,Overcast,10,2014-02-25 20:15:00
2:35 PM,44.6,17.6,34,30.15,10.0,NNE,13.8,-,N/A,,Overcast,20,2014-02-25 20:35:00
2:55 PM,42.8,19.4,39,30.15,10.0,NE,16.1,19.6,N/A,,Overcast,50,2014-02-25 20:55:00
3:15 PM,41.0,17.6,39,30.15,10.0,NNE,13.8,20.7,N/A,,Overcast,30,2014-02-25 21:15:00
3:35 PM,39.2,17.6,42,30.15,10.0,NNE,13.8,19.6,N/A,,Overcast,20,2014-02-25 21:35:00
3:55 PM,39.2,17.6,42,30.16,10.0,NNE,16.1,19.6,N/A,,Overcast,30,2014-02-25 21:55:00
4:15 PM,39.2,17.6,42,30.16,10.0,NE,12.7,18.4,N/A,,Overcast,40,2014-02-25 22:15:00
4:35 PM,39.2,17.6,42,30.16,10.0,NE,11.5,17.3,N/A,,Overcast,40,2014-02-25 22:35:00
4:55 PM,37.4,17.6,45,30.17,10.0,NNE,11.5,-,N/A,,Overcast,20,2014-02-25 22:55:00
5:15 PM,37.4,17.6,45,30.17,10.0,NNE,11.5,-,N/A,,Overcast,30,2014-02-25 23:15:00
5:35 PM,37.4,17.6,45,30.18,10.0,NNE,11.5,-,N/A,,Overcast,20,2014-02-25 23:35:00
5:55 PM,37.4,15.8,41,30.18,10.0,NNE,15.0,18.4,N/A,,Overcast,30,2014-02-25 23:55:00
6:15 PM,35.6,15.8,44,30.18,10.0,NNE,11.5,-,N/A,,Overcast,20,2014-02-26 00:15:00
6:35 PM,35.6,15.8,44,30.18,10.0,NNE,13.8,-,N/A,,Overcast,20,2014-02-26 00:35:00
6:55 PM,35.6,15.8,44,30.19,10.0,NNE,15.0,-,N/A,,Overcast,20,2014-02-26 00:55:00
7:15 PM,35.6,15.8,44,30.19,10.0,NNE,15.0,-,N/A,,Overcast,30,2014-02-26 01:15:00
7:35 PM,35.6,15.8,44,30.19,10.0,NNE,15.0,19.6,N/A,,Overcast,30,2014-02-26 01:35:00
7:55 PM,35.6,15.8,44,30.20,10.0,NNE,12.7,-,N/A,,Overcast,30,2014-02-26 01:55:00
8:15 PM,33.8,15.8,48,30.21,10.0,NNE,16.1,-,N/A,,Overcast,20,2014-02-26 02:15:00
8:35 PM,33.8,15.8,48,30.22,10.0,NNE,17.3,-,N/A,,Overcast,20,2014-02-26 02:35:00
8:55 PM,30.2,14.0,51,30.23,10.0,NNE,19.6,23.0,N/A,,Overcast,20,2014-02-26 02:55:00
9:15 PM,30.2,12.2,47,30.24,10.0,NNE,18.4,24.2,N/A,,Overcast,30,2014-02-26 03:15:00
9:35 PM,28.4,12.2,51,30.25,10.0,NNE,18.4,25.3,N/A,,Overcast,20,2014-02-26 03:35:00
9:55 PM,28.4,12.2,51,30.26,10.0,NNE,15.0,-,N/A,,Overcast,30,2014-02-26 03:55:00
10:15 PM,28.4,12.2,51,30.26,10.0,NNE,13.8,21.9,N/A,,Overcast,20,2014-02-26 04:15:00
10:35 PM,28.4,12.2,51,30.26,10.0,NNE,16.1,21.9,N/A,,Overcast,30,2014-02-26 04:35:00
10:55 PM,26.6,12.2,55,30.26,10.0,NNE,17.3,-,N/A,,Overcast,20,2014-02-26 04:55:00
11:15 PM,26.6,10.4,51,30.28,10.0,NNE,15.0,26.5,N/A,,Overcast,20,2014-02-26 05:15:00
11:35 PM,26.6,10.4,51,30.29,10.0,NNE,19.6,25.3,N/A,,Overcast,20,2014-02-26 05:35:00
11:55 PM,24.8,10.4,54,30.30,10.0,NNE,16.1,-,N/A,,Overcast,20,2014-02-26 05:55:00